Regional Weather Roundup
Issued by NWS

Home | Current Version | Previous Version | Graphics & Text | Print | Product List | Glossary On
Versions: 1 2 3 4 5 6 7 8 9 10 11 12 13 14 15 16 17 18 19 20 21 22 23 24 25 26 27 28 29 30 31 32 33 34 35 36 37 38 39 40 41 42 43 44 45 46 47 48 49 50
000
ASUS43 KLOT 261809
RWRIL

ILLINOIS REGIONAL WEATHER ROUNDUP
NATIONAL WEATHER SERVICE CHICAGO/ROMEOVILLE IL
100 PM CDT THU APR 26 2018

NOTE: "FAIR" INDICATES FEW OR NO CLOUDS BELOW 12,000 FEET WITH NO
SIGNIFICANT WEATHER AND/OR OBSTRUCTIONS TO VISIBILITY.

* THESE STATIONS ARE NOT UNDER NWS QUALITY CONTROL. THEY ALSO MAY NOT
  REPORT WEATHER SUCH AS PRECIPITATION OR FOG.

ILZ001-002-007-009-015-016-024-261900-
NORTHWEST ILLINOIS

CITY           SKY/WX    TMP DP  RH WIND       PRES   REMARKS
MOLINE         FAIR      67  33  28 VRB5      29.92F
6HR MIN TEMP:  36; 6HR MAX TEMP:  67;

STERLING*      FAIR      64  33  31 W7        29.93F
SAVANNA*       FAIR      63  34  33 S5        29.92F
$$

ILZ003-004-008-010-011-017-018-261900-
NORTH CENTRAL ILLINOIS

CITY           SKY/WX    TMP DP  RH WIND       PRES   REMARKS
ROCKFORD       CLOUDY    62  31  31 W8        29.93F
6HR MIN TEMP:  34; 6HR MAX TEMP:  62;

FREEPORT*      FAIR      62  32  32 SW6       29.94F
ROCHELLE*      FAIR      62  32  33 NW3       29.93F
DE KALB*       FAIR      61  32  33 W9        29.94F
PERU*          FAIR      65  34  32 SW5       29.94F
$$

ILZ005-006-012>014-019>023-261900-
NORTHEAST ILLINOIS

CITY           SKY/WX    TMP DP  RH WIND       PRES   REMARKS
CHICAGO-OHARE  PTSUNNY   62  28  27 VRB3      29.93F
6HR MIN TEMP:  38; 6HR MAX TEMP:  62;

CHICAGO-MIDWAY PTSUNNY   61  27  27 N5        29.94F
6HR MIN TEMP:  40; 6HR MAX TEMP:  61;

AURORA         FAIR      62  32  32 SW7       29.94F
6HR MIN TEMP:  33; 6HR MAX TEMP:  62;

LANSING*       FAIR      58  32  37 CALM      29.95F
JOLIET*        FAIR      62  30  30 N3        29.94F
WAUKEGAN       FAIR      54  32  43 S13       29.93F
6HR MIN TEMP:  37; 6HR MAX TEMP:  56;

DUPAGE AIRPORT FAIR      61  32  33 SW7       29.93F
6HR MIN TEMP:  33; 6HR MAX TEMP:  61;

KANKAKEE*      FAIR      60  30  32 W3        29.95F
WHEELING       FAIR      62  28  27 MISG      29.94F
6HR MIN TEMP:  37; 6HR MAX TEMP:  62;

MORRIS*        FAIR      61  29  30 NW3       29.93F
ROMEOVILLE*    FAIR      61  31  32 S5        29.94F
NORTHERLY ISL    N/A     46  32  58 E5          N/A
$$

LMZ740>746-261900-
SOUTHERN LAKE MICHIGAN

STATION/POSITION SKY/WX   TEMP    WIND        PRES    VSBY  WAVE
                          AIR SEA DIR/SP/G                  HT/PER
                          (F)     (DEG/KT/KT) (MB)    (MI)  (FT/S)
HARRISON CRIB              44     130/  7/  7   N/A
BURNHAM HARBOR             45     100/  4/  6   N/A
CALUMET HARBOR             43      60/  6/  7 1014.0F
BURNS HARBOR               42      10/  5/  6 1015.2F
MICHIGAN CITY              45     350/  5/  5   N/A
ST. JOSEPH                 41 44  350/  6/  8 1015.4F         1/ 5
$$

ILZ025>027-034>036-040-047-049-050-058-095>099-261900-
WEST-CENTRAL ILLINOIS

CITY           SKY/WX    TMP DP  RH WIND       PRES   REMARKS
QUINCY         MOSUNNY   65  32  29 VRB5      29.94F
GALESBURG*     FAIR      68  35  29 CALM      29.95S
MACOMB*        CLOUDY    65  32  28 W9        29.96F
JACKSONVILLE*  SUNNY     64  32  30 N3        29.94F
PITTSFIELD*    MOSUNNY   66  35  32 CALM      29.95F
$$

ILZ028>032-037-038-041>044-048-051>054-059>061-261900-
CENTRAL ILLINOIS

CITY           SKY/WX    TMP DP  RH WIND       PRES   REMARKS
PONTIAC        FAIR      62  32  32 W5        29.95F
BLOOMINGTON    FAIR      63  34  33 VRB6      29.95F
DECATUR        FAIR      64  34  32 NW9       29.93F
PEORIA         FAIR      65  37  35 VRB6      29.94F
6HR MIN TEMP:  38; 6HR MAX TEMP:  65;

LACON*         FAIR      63  35  35 CALM      29.93F
LINCOLN*       FAIR      64  36  35 NW7       29.94F
SPRINGFIELD    FAIR      67  34  29 MISG      29.94F
6HR MIN TEMP:  40; 6HR MAX TEMP:  67;

TAYLORVILLE    FAIR      64  34  33 N7        29.94F
6HR MIN TEMP:  40; 6HR MAX TEMP:  64;

$$

ILZ033-039-045-046-055>057-062-063-261900-
EAST-CENTRAL ILLINOIS

CITY           SKY/WX    TMP DP  RH WIND       PRES   REMARKS
CHAMPAIGN      FAIR      62  30  29 VRB7      29.93F
DANVILLE*      FAIR      58  34  40 NW5       29.91F
RANTOUL*       FAIR      64  29  27 N8        29.94F
MATTOON        FAIR      63  33  32 MISG      29.91F
PARIS*         FAIR      61  33  34 N10G16    29.93F
$$

ILZ079-100>102-261900-
SOUTHWEST ILLINOIS

CITY           SKY/WX    TMP DP  RH WIND       PRES   REMARKS
ALTON          MOSUNNY   66  41  39 NE8       29.95F
BELLEVILLE     SUNNY     64  39  40 CALM      29.94F
CAHOKIA*       SUNNY     66  36  32 CALM      29.94F
SPARTA*        PTSUNNY   60  47  60 N5        29.96F
$$

ILZ064>066-069>071-074>076-080>082-084>086-088>090-092>094-261900-
SOUTH-CENTRAL ILLINOIS

CITY           SKY/WX    TMP DP  RH WIND       PRES   REMARKS
CARBONDALE     CLOUDY    61  41  47 NE7       29.93F
6HR MIN TEMP:  50; 6HR MAX TEMP:  61; 6HR PCP:  0.01;

CAIRO*         CLOUDY    58  40  51 N7        29.92S
EFFINGHAM*     FAIR      63  37  38 N12G17    29.95S
MARION         CLOUDY    57  41  54 N8        29.94F
MT. VERNON     FAIR      65  37  35 NE8       29.93S
CENTRALIA*     SUNNY     65  38  37 NW9G17    29.92F
SALEM*         FAIR      65  36  34 NE3G10    29.93F
METROPOLIS*    CLOUDY    61  41  47 NE6       29.91F
$$

ILZ067-068-072-073-078-083-087-091-261900-
SOUTHEAST ILLINOIS

CITY           SKY/WX    TMP DP  RH WIND       PRES   REMARKS
LAWRENCEVILLE  FAIR      67  29  24 MISG      29.91F
FLORA*         FAIR      65  39  38 NW9       29.93F
FAIRFIELD*     FAIR      64  35  34 NW5       29.92S
HARRISBURG*    FAIR      63  44  50 NE5       29.93F
ROBINSON*      FAIR      62  32  32 N12       29.92F
CARMI*         FAIR      64  38  38 NE6       29.91F
$$

ABBREVIATIONS USED IN REMARKS
   TC - TEMPERATURE IN CELSIUS
  WCI - WIND CHILL INDEX
   HX - HEAT INDEX
  VSB - VISIBILITY
$$





USA.gov is the U.S. government's official web portal to all federal, state and local government web resources and services.